Regional Weather Roundup
Issued by NWS

Home | Current Version | Previous Version | Graphics & Text | Print | Product List | Glossary On
Versions: 1 2 3 4 5 6 7 8 9 10 11 12 13 14 15 16 17 18 19 20 21 22 23 24 25 26 27 28 29 30 31 32 33 34 35 36 37 38 39 40 41 42 43 44 45 46 47 48 49 50
000
ASUS45 KTFX 022110
RWRMT
MONTANA REGIONAL WEATHER ROUNDUP
NATIONAL WEATHER SERVICE GREAT FALLS MT
300 PM MDT THU JUL 02 2015

NOTE: "FAIR" INDICATES FEW OR NO CLOUDS BELOW 12000 FEET WITH NO
SIGNIFICANT WEATHER AND/OR OBSTRUCTIONS TO VISIBILITY.

MTZ001>007-043-022200-
WEST OF THE DIVIDE

CITY           SKY/WX    TMP DP  RH WIND       PRES   REMARKS
KALISPELL      FAIR      90  47  22 VRB5      30.04F
MISSOULA       FAIR      90  43  19 VRB5      30.04F
BUTTE          FAIR      82  33  17 W6        30.19F
MULLAN PASS    FAIR      78  41  26 NW6       30.25F
DEER LODGE       N/A     84  41  21 NW6       30.17F
EUREKA           N/A     90  46  22 SW3       30.01F
HAMILTON         N/A     88  45  22 NW7       30.05F
PLAINS           N/A     94  52  24 NE1       30.01F HX  91
RONAN            N/A     88  48  24 CALM      30.10F
THOMPSON FALLS   N/A     94  46  19 E1        30.02F HX  90
$$

MTZ008-052>055-022200-
SOUTHWEST MONTANA

CITY           SKY/WX    TMP DP  RH WIND       PRES   REMARKS
BOZEMAN        FAIR      86  42  21 NW7       30.13F
DILLON         FAIR      85  47  26 N7        30.15F
W YELLOWSTONE  SUNNY     82  28  14 NW8G17    30.23F
THREE FORKS      N/A     85  44  23 E3        30.11F
$$

MTZ009-010-012-014-046-048-049-054-022200-
EAST SLOPES AND CENTRAL MONTANA

CITY           SKY/WX    TMP DP  RH WIND       PRES   REMARKS
CUT BANK       FAIR      83  48  29 S8        30.13F
GREAT FALLS    FAIR      84  49  29 NE9       30.13F
MALMSTROM AFB  FAIR      81  49  31 NE7G15    30.13F
HELENA         FAIR      87  48  25 NE7       30.09F
CONRAD           N/A     81  56  42 CALM      30.15F
$$

MTZ011-013-016-021-045-047-050-051-022200-
NORTH CENTRAL MONTANA

CITY           SKY/WX    TMP DP  RH WIND       PRES   REMARKS
HAVRE          FAIR      83  52  34 S6        30.09F
LEWISTOWN      FAIR      80  49  33 N8        30.18F
CHINOOK          N/A     82  54  36 CALM      30.09F
FORT BENTON      N/A     82  54  36 CALM      30.11F
$$

MTZ017>020-022>027-061-062-022200-
NORTHEAST MONTANA

CITY           SKY/WX    TMP DP  RH WIND       PRES   REMARKS
GLASGOW        MOSUNNY   82  56  40 NW12      30.05F
JORDAN           N/A     81  54  39 NW9       30.09F
SIDNEY         SUNNY     81  57  44 NW8       30.03F
WOLF POINT     MOSUNNY   83  59  44 VRB6      30.04F
MALTA            N/A     81  54  39 NW7       30.05F
PLENTYWOOD       N/A     79  57  47 NW9       30.03F
SCOBEY           N/A     76  56  49 NW1       30.05F
$$

MTZ028>42-056>058-022200-
SOUTHCENTRAL AND SOUTHEAST MONTANA

CITY           SKY/WX    TMP DP  RH WIND       PRES   REMARKS
BAKER          FAIR      80  57  45 N12G20    30.08F HAZE
BILLINGS       MOSUNNY   84  51  31 NE10G23   30.13F
LIVINGSTON     SUNNY     84  49  29 VRB5      30.14F
MILES CITY     MOSUNNY   83  54  36 N15       30.06F
EKALAKA          N/A     77  53  43 NW10      30.08F
FORSYTH          N/A     82  54  36 NW10      30.08F
LAUREL           N/A     84  53  34 NE3       30.11F
ROUNDUP          N/A     82  48  30 N5        30.05F
$$

REGIONAL REPORTS...DAKOTAS

CITY           SKY/WX    TMP DP  RH WIND       PRES   REMARKS
WILLISTON      MOSUNNY   83  58  42 NW8G16    30.01F
MINOT          MOSUNNY   79  62  56 NW12      29.96F HAZE
DICKINSON      MOSUNNY   78  58  49 N13       30.03S HAZE
BEACH          FAIR      77  59  53 N9        30.07F HAZE
CROSBY         FAIR      77  64  65 NW9       30.02S
BISMARCK       MOSUNNY   79  62  56 N13       29.97S HAZE
GRAND FORKS    PTSUNNY   80  64  58 S13       29.90F
FARGO          SUNNY     78  54  43 S8        29.96S
BUFFALO SD       N/A     79  56  45 N16G24    30.01S
RAPID CITY     SUNNY     80  56  43 NW18G29   30.07F
$$

REGIONAL REPORTS...WYOMING/IDAHO/WASHINGTON

CITY           SKY/WX    TMP DP  RH WIND       PRES   REMARKS
GILLETTE       MOSUNNY   79  57  46 N12G17    30.16F
SHERIDAN       MOSUNNY   83  54  36 NW9G16    30.14F
BUFFALO WY     PTSUNNY   77  55  46 N7        30.20F
CODY           SUNNY     81  52  36 N8        30.18S
YELLOWSTONE LA   N/A     76  45  33 E7        30.34F
IDAHO FALLS    SUNNY     90  45  21 W3        30.10F
SALMON         FAIR      90  45  20 NW6       30.01F
BOISE          FAIR     100  41  13 NW12      29.96F HX  95
SPOKANE        FAIR      95  43  16 NW9       30.00F HX  91
$$

REGIONAL REPORTS...ALBERTA

CITY           SKY/WX    TMP DP  RH WIND       PRES   REMARKS
CALGARY        MOSUNNY   79  54  41 SW13G20   30.11F
LETHBRIDGE     MOSUNNY   81  55  41 E3        30.10F
MEDICINE HAT   MOSUNNY   84  54  34 W7        30.07F
CARDSTON         N/A     81  54  39 E5          N/A
MILK RIVER       N/A     82  50  32 S6          N/A
ONEFOUR          N/A     82  48  30 NW7         N/A
$$

REGIONAL REPORTS...SASKATCHEWAN

CITY           SKY/WX    TMP DP  RH WIND       PRES   REMARKS
SWIFT CURRENT  MOSUNNY   79  57  47 NW9G18    30.08F
REGINA         CLOUDY    77  63  61 NW15G21   30.03S SMOKE
SASKATOON      PTSUNNY   82  59  44 N8        30.03S
CYPRESS HILLS    N/A     72  50  46 NW3         N/A
VAL MARIE        N/A     77  57  50 N8          N/A
ASSINIBOIA       N/A     81  55  41 NW3         N/A
$$



USA.gov is the U.S. government's official web portal to all federal, state and local government web resources and services.